Temperature
7 7 6 6 5 4 3 3 2 1 2 3 2 2 1 1 0 -0 -0 -1 -1 -1 -2 -2 -2 -2 -3 -3 -3 -3 -3 -3 -3 -3 -3 -2 -2 -2
7 6 6 5 5 4 3 3 2 1 0 1 1 1 1 0 -0 -1 -1 -1 -1 -2 -2 -3 -3 -3 -4 -4 -4 -4 -4 -3 -3 -3 -3 -3 -3 -2
6 6 5 5 4 4 3 2 2 1 0 1 1 0 -0 -0 -1 -1 -1 -2 -2 -2 -3 -3 -4 -4 -4 -4 -4 -4 -4 -4 -4 -4 -4 -3 -3 -3
6 5 5 4 4 3 3 2 1 1 -0 -0 0 -0 -1 -1 -1 -2 -2 -2 -3 -3 -3 -4 -4 -4 -4 -5 -5 -5 -4 -4 -4 -4 -4 -4 -4 -4
5 5 4 4 3 3 2 2 1 0 -0 -1 -1 -1 -1 -2 -2 -2 -3 -3 -3 -4 -4 -4 -4 -5 -5 -5 -5 -5 -5 -5 -5 -5 -5 -5 -4 -4
5 4 4 3 3 2 1 1 0 -0 -1 -2 -2 -2 -2 -3 -3 -3 -4 -4 -4 -4 -4 -5 -5 -5 -5 -5 -5 -5 -5 -5 -5 -5 -5 -5 -5 -5
4 4 3 3 2 1 1 0 -1 -1 -2 -2 -3 -3 -3 -3 -4 -4 -5 -5 -5 -5 -5 -5 -5 -5 -5 -5 -5 -5 -6 -6 -6 -6 -5 -5 -5 -5
4 3 3 2 1 1 0 -1 -1 -2 -2 -3 -3 -4 -4 -4 -5 -5 -6 -6 -6 -6 -6 -6 -6 -6 -6 -6 -6 -6 -6 -6 -6 -6 -6 -6 -5 -5
3 3 2 1 1 0 -0 -1 -1 -2 -3 -3 -4 -4 -4 -5 -5 -6 -6 -6 -6 -6 -6 -6 -6 -6 -6 -6 -6 -6 -7 -7 -6 -6 -6 -6 -6 -5
2 2 1 1 0 -1 -1 -1 -2 -2 -3 -4 -4 -4 -5 -5 -6 -6 -6 -6 -6 -6 -7 -7 -6 -6 -6 -6 -7 -7 -7 -7 -7 -7 -6 -6 -6 -6
2 1 0 -0 -1 -1 -2 -2 -3 -3 -3 -4 -5 -5 -5 -6 -6 -6 -7 -7 -7 -7 -7 -7 -7 -7 -7 -7 -7 -7 -7 -7 -7 -7 -7 -7 -6 -6
1 0 -0 -1 -2 -2 -3 -3 -3 -4 -4 -5 -5 -5 -6 -6 -6 -7 -7 -7 -8 -8 -8 -8 -8 -8 -8 -7 -7 -7 -7 -7 -7 -7 -7 -7 -7 -6
-0 -1 -1 -2 -2 -3 -3 -4 -4 -5 -5 -5 -6 -6 -6 -7 -7 -7 -8 -8 -8 -8 -8 -9 -9 -9 -9 -9 -8 -7 -8 -8 -7 -7 -7 -7 -7 -7
-1 -1 -2 -3 -3 -4 -4 -4 -5 -6 -6 -6 -7 -7 -7 -7 -7 -8 -8 -8 -8 -8 -9 -9 -9 -9 -9 -9 -9 -8 -8 -8 -8 -7 -7 -7 -7 -7
-2 -2 -3 -3 -4 -4 -5 -5 -6 -6 -7 -7 -7 -7 -8 -8 -8 -8 -8 -8 -8 -8 -9 -9 -9 -9 -9 -9 -9 -9 -8 -8 -8 -8 -8 -7 -7 -7
-2 -3 -3 -4 -4 -5 -5 -6 -6 -7 -7 -8 -8 -8 -8 -8 -9 -9 -9 -9 -9 -8 -9 -9 -9 -9 -9 -9 -9 -9 -9 -9 -8 -8 -8 -7 -7 -7
-3 -4 -4 -5 -5 -5 -6 -6 -7 -7 -8 -8 -8 -9 -9 -9 -9 -9 -9 -10 -10 -9 -9 -9 -9 -9 -9 -9 -9 -9 -9 -9 -9 -9 -8 -8 -7 -7
-4 -5 -5 -6 -6 -7 -7 -7 -8 -8 -8 -9 -9 -9 -9 -10 -10 -10 -10 -10 -10 -10 -10 -10 -9 -9 -9 -9 -9 -9 -9 -9 -9 -8 -8 -8 -7 -7
-5 -5 -6 -6 -7 -7 -8 -8 -8 -9 -9 -9 -10 -10 -10 -10 -10 -10 -10 -10 -10 -10 -10 -10 -10 -10 -10 -10 -9 -9 -9 -9 -9 -8 -8 -8 -8 -7
-5 -6 -6 -7 -7 -8 -8 -9 -9 -9 -9 -10 -10 -10 -10 -11 -11 -11 -11 -11 -11 -11 -10 -10 -10 -10 -11 -11 -10 -9 -9 -9 -9 -9 -8 -8 -7 -7
-6 -7 -7 -8 -8 -9 -9 -9 -9 -10 -10 -10 -10 -10 -11 -11 -11 -11 -11 -11 -11 -11 -11 -11 -11 -11 -10 -10 -10 -9 -9 -9 -9 -9 -8 -8 -8 -7
-7 -7 -8 -8 -9 -9 -9 -10 -10 -10 -10 -10 -11 -11 -11 -11 -11 -11 -11 -11 -11 -11 -11 -11 -11 -11 -10 -10 -10 -10 -9 -9 -9 -9 -9 -9 -9 -8
-7 -8 -8 -9 -9 -9 -10 -10 -10 -10 -11 -11 -11 -11 -11 -11 -11 -11 -12 -12 -11 -11 -11 -11 -11 -11 -11 -10 -10 -10 -9 -9 -8 -8 -8 -8 -8 -8
Wind_Speed
5 5 3 3 3 3 3 4 3 4 5 4 3 3 6 9 13 14 14 17 20 21 21 21 22 23 23 23 23 24 24 24 24 24 25 25 26 26
4 5 4 3 3 3 4 4 4 5 6 4 5 5 8 12 15 15 15 18 20 21 22 22 22 23 23 23 23 24 24 24 24 24 25 26 26 27
5 5 6 4 4 4 3 4 4 5 8 7 5 5 5 7 11 13 14 15 15 20 23 23 23 23 24 23 23 24 24 24 24 25 25 26 27 27
6 6 6 4 5 4 4 5 5 6 6 10 7 5 6 7 7 7 10 13 13 19 22 23 23 24 24 24 24 24 24 24 24 25 25 26 26 26
7 7 6 5 6 5 5 6 5 6 6 8 9 5 5 5 6 7 8 8 13 16 20 21 22 24 24 24 25 25 24 24 25 25 25 25 25 25
6 7 7 7 7 7 6 7 6 6 6 7 8 6 5 6 5 6 7 6 8 12 16 19 21 23 23 23 24 24 24 25 25 25 25 24 23 24
6 6 7 9 10 9 7 6 6 6 6 7 8 7 6 5 5 5 8 8 7 7 7 9 10 10 14 20 22 23 24 24 24 24 23 23 23 23
7 7 7 8 11 14 15 14 11 8 7 6 7 8 8 6 6 7 8 9 7 4 4 7 6 8 8 12 19 23 23 23 22 21 21 20 21 22
7 6 6 7 10 7 11 14 13 16 15 10 9 9 8 7 7 8 8 9 9 6 7 8 5 7 8 14 20 22 21 20 19 20 20 20 22 22
7 7 7 7 7 8 7 7 8 9 11 8 8 10 9 9 8 9 9 9 8 6 5 7 6 6 9 9 18 18 17 18 19 19 20 21 21 20
6 6 6 7 12 14 8 7 8 8 12 16 18 17 19 20 15 7 6 7 8 5 3 4 4 5 6 6 10 14 16 19 19 19 20 20 19 18
5 6 9 10 13 14 7 7 9 8 7 9 10 12 11 13 16 8 6 7 7 5 2 2 4 4 5 3 3 7 10 15 18 19 19 18 18 10
4 5 6 12 14 15 12 7 11 11 7 6 6 6 6 6 6 6 5 5 6 6 4 3 3 3 4 5 4 5 5 6 8 11 15 16 17 12
5 5 6 12 14 14 11 12 16 14 5 4 5 5 5 5 6 6 7 7 8 8 8 6 4 5 6 7 6 5 5 6 6 6 6 13 14 15
5 9 10 12 12 9 12 15 12 6 4 5 6 6 5 5 4 4 5 6 7 8 9 8 6 6 6 7 7 6 6 6 5 5 6 7 7 7
5 7 10 10 8 9 9 8 5 5 5 6 6 5 4 3 4 3 3 3 4 5 6 8 6 6 5 7 7 9 7 5 6 7 7 7 6 5
3 2 2 3 4 4 5 5 5 5 6 5 5 5 5 4 4 3 2 2 3 4 5 5 5 5 7 7 6 7 6 6 6 6 6 7 7 6
4 3 4 4 5 5 5 5 5 5 5 5 5 5 5 4 4 3 3 3 4 4 5 4 4 4 4 4 6 6 5 5 5 6 5 6 7 6
4 4 4 5 5 5 5 5 5 5 5 5 5 5 4 4 4 4 3 3 4 4 5 4 3 3 4 5 5 4 4 6 6 6 5 5 7 8
3 4 5 5 5 5 5 5 5 5 4 4 5 5 4 4 4 4 4 4 4 4 4 3 3 3 4 5 4 5 8 6 5 6 6 6 6 9
5 5 5 5 5 5 5 5 5 5 5 4 4 5 4 4 4 4 4 7 5 3 4 5 5 7 4 3 4 5 5 8 9 7 6 6 6 4
5 5 5 6 5 5 5 5 5 5 5 5 5 5 4 4 4 5 4 4 4 4 4 4 5 4 2 2 5 6 6 7 9 11 9 7 4 4
6 6 5 5 5 5 5 6 6 5 5 5 5 4 4 4 4 4 4 4 4 4 4 4 3 2 2 3 4 5 7 7 5 5 6 9 11 12
Wind_Direction
194 197 201 211 203 202 195 186 198 272 288 268 272 267 276 299 306 308 304 307 312 312 310 310 309 307 306 306 305 305 304 302 301 300 298 298 297 296
195 201 216 220 219 213 210 210 203 217 262 263 254 263 284 294 301 307 301 306 310 309 308 307 307 306 306 304 304 304 304 303 302 301 300 300 298 295
205 209 225 224 227 229 224 223 222 215 258 277 260 269 274 277 292 293 294 294 294 304 307 306 306 306 306 304 304 304 304 303 303 302 301 299 297 295
214 216 232 232 236 237 233 236 237 229 244 278 285 277 267 271 274 280 291 295 293 302 306 306 306 306 305 304 303 303 304 304 303 302 301 299 297 296
212 218 230 228 243 246 244 246 251 256 245 266 284 276 269 272 280 283 283 286 291 298 303 303 304 304 304 304 305 306 305 304 303 301 300 298 297 296
217 221 228 227 238 246 252 251 255 260 261 267 279 281 272 268 271 283 294 281 286 294 294 297 300 302 302 304 305 305 304 304 302 300 299 298 298 298
228 230 234 242 249 255 261 255 252 259 266 271 280 285 283 283 279 277 292 293 281 272 275 284 291 290 293 297 301 300 301 302 302 302 302 302 302 301
233 242 247 253 263 272 276 278 275 273 272 271 278 279 281 274 275 280 288 298 297 263 267 281 275 278 283 286 293 299 302 303 304 306 308 308 307 306
231 241 256 260 270 265 277 285 286 286 284 282 280 278 280 274 276 280 277 280 284 283 284 287 275 278 283 290 298 301 303 306 310 312 312 311 309 308
233 236 244 256 262 269 263 266 265 270 278 281 267 270 271 271 264 273 281 284 275 269 265 281 284 281 289 287 294 301 308 314 316 314 314 314 312 310
243 242 248 253 271 282 279 271 274 273 282 285 287 289 293 298 300 299 297 298 299 290 252 255 283 295 286 278 287 304 314 318 317 316 317 314 313 315
252 254 261 268 279 287 279 271 277 278 276 286 289 293 296 298 301 295 285 288 293 294 266 266 282 306 302 279 280 298 307 312 318 320 318 318 318 318
249 254 257 277 283 286 287 275 281 291 283 278 281 285 289 287 285 279 265 260 272 272 272 275 280 277 272 296 294 282 287 298 310 311 317 322 325 326
247 249 259 282 287 289 291 290 295 302 298 293 290 286 285 285 280 275 272 265 258 263 272 267 266 275 284 292 295 296 300 294 295 300 308 321 324 326
256 273 282 287 291 291 292 297 302 300 290 287 286 282 275 273 276 283 284 283 281 277 276 268 261 272 270 281 289 294 306 303 298 309 312 312 309 312
274 280 289 293 295 294 296 299 292 277 282 275 277 275 274 276 275 272 281 300 303 300 289 283 272 264 271 272 279 289 292 291 305 309 309 305 300 296
276 257 264 279 277 278 279 276 271 276 284 273 275 281 286 285 282 275 272 287 285 294 304 307 302 284 262 265 277 281 289 292 292 305 312 311 301 296
293 271 267 267 270 275 278 279 273 273 271 270 272 274 279 281 283 283 273 276 285 288 291 297 313 326 327 294 248 269 285 289 297 303 302 305 305 303
281 269 269 270 270 269 269 269 271 271 264 264 267 267 270 274 278 280 284 288 287 286 289 292 302 312 314 310 298 272 286 301 305 306 298 292 296 301
261 263 267 269 270 268 267 265 268 271 264 261 262 262 258 263 269 273 278 278 283 289 296 298 289 281 275 286 290 291 297 291 296 301 301 298 288 293
262 262 264 266 268 267 265 262 261 262 260 257 259 257 255 252 259 265 273 289 293 286 289 289 284 306 290 284 293 294 293 301 301 294 297 305 307 309
264 264 265 264 263 262 261 261 262 260 258 255 255 254 249 248 253 258 263 272 277 275 276 282 298 315 306 282 292 298 304 309 314 315 304 290 292 305
262 263 263 265 262 259 258 258 257 258 253 250 249 247 244 246 245 246 255 261 270 280 286 296 309 309 290 278 287 296 302 309 313 319 312 315 312 298
Height
1514 1514 1513 1512 1510 1509 1508 1506 1504 1498 1494 1494 1493 1491 1489 1486 1483 1479 1476 1473 1470 1466 1463 1460 1457 1454 1451 1449 1446 1443 1440 1438 1435 1432 1430 1428 1426 1424
1510 1509 1509 1507 1506 1505 1503 1502 1499 1496 1491 1488 1487 1486 1483 1480 1477 1474 1470 1467 1463 1460 1457 1454 1451 1448 1445 1442 1439 1436 1434 1431 1428 1425 1423 1420 1418 1416
1506 1505 1504 1503 1501 1500 1498 1496 1494 1491 1486 1481 1481 1479 1477 1474 1470 1467 1464 1460 1456 1453 1450 1447 1444 1441 1438 1435 1432 1429 1427 1424 1421 1418 1415 1413 1410 1408
1501 1500 1499 1498 1496 1495 1493 1490 1488 1486 1481 1475 1473 1472 1469 1467 1463 1460 1457 1453 1450 1446 1443 1440 1437 1434 1431 1428 1425 1422 1419 1416 1413 1410 1408 1405 1402 1400
1496 1495 1494 1493 1491 1489 1487 1484 1482 1479 1476 1471 1466 1465 1462 1460 1456 1453 1450 1446 1443 1440 1436 1433 1430 1427 1424 1421 1418 1415 1412 1409 1406 1403 1400 1397 1395 1392
1491 1490 1489 1487 1485 1483 1481 1478 1476 1473 1470 1466 1461 1458 1455 1453 1449 1445 1441 1438 1435 1433 1430 1426 1423 1420 1417 1414 1411 1407 1404 1401 1398 1396 1393 1390 1387 1385
1486 1485 1483 1482 1480 1477 1475 1473 1470 1467 1463 1459 1455 1452 1449 1446 1443 1439 1434 1430 1427 1425 1421 1419 1416 1413 1410 1407 1403 1400 1397 1394 1391 1388 1386 1383 1380 1378
1480 1479 1477 1476 1474 1472 1469 1467 1465 1462 1457 1454 1449 1446 1442 1440 1436 1433 1428 1423 1419 1418 1415 1411 1409 1405 1403 1400 1396 1393 1390 1387 1385 1382 1379 1376 1374 1371
1474 1472 1471 1469 1467 1465 1463 1460 1458 1456 1453 1449 1444 1440 1437 1433 1430 1426 1422 1419 1415 1412 1409 1403 1402 1399 1397 1393 1390 1387 1384 1381 1379 1376 1373 1370 1368 1365
1468 1466 1464 1462 1461 1458 1455 1452 1450 1448 1446 1442 1439 1434 1431 1428 1425 1421 1417 1412 1408 1407 1404 1399 1395 1392 1389 1387 1384 1381 1378 1376 1373 1370 1367 1364 1362 1359
1461 1460 1458 1456 1454 1452 1449 1445 1442 1440 1438 1435 1432 1429 1425 1422 1419 1415 1411 1407 1402 1399 1398 1394 1390 1386 1382 1380 1378 1376 1373 1370 1367 1364 1361 1359 1356 1353
1454 1453 1452 1449 1447 1445 1442 1439 1435 1433 1430 1427 1425 1422 1419 1415 1413 1410 1406 1402 1398 1394 1392 1390 1386 1382 1377 1374 1373 1371 1368 1365 1362 1359 1356 1353 1351 1348
1447 1446 1445 1443 1441 1438 1436 1433 1430 1427 1423 1420 1417 1414 1411 1408 1406 1403 1401 1398 1394 1390 1389 1386 1382 1379 1377 1371 1368 1366 1364 1361 1357 1355 1352 1349 1347 1344
1441 1439 1438 1436 1434 1432 1429 1426 1424 1421 1417 1413 1410 1407 1405 1402 1399 1397 1395 1392 1389 1387 1384 1382 1379 1376 1373 1369 1365 1362 1360 1357 1354 1351 1349 1346 1343 1341
1435 1433 1431 1429 1426 1424 1422 1420 1417 1414 1411 1407 1404 1402 1399 1396 1394 1391 1389 1387 1384 1382 1380 1378 1375 1372 1370 1366 1362 1359 1356 1353 1351 1348 1346 1343 1340 1337
1428 1426 1424 1422 1420 1417 1415 1413 1411 1408 1405 1402 1399 1396 1394 1391 1389 1386 1384 1381 1379 1377 1376 1374 1371 1369 1366 1363 1360 1356 1354 1351 1348 1346 1343 1340 1338 1335
1421 1419 1417 1415 1413 1411 1408 1406 1404 1402 1399 1396 1394 1391 1389 1386 1384 1382 1380 1377 1375 1372 1371 1369 1367 1365 1362 1360 1356 1354 1352 1349 1347 1344 1340 1337 1335 1333
1415 1412 1410 1408 1406 1404 1402 1399 1397 1395 1393 1391 1388 1386 1384 1382 1380 1378 1376 1374 1371 1369 1367 1365 1363 1361 1359 1356 1355 1352 1349 1347 1344 1341 1338 1335 1332 1330
1408 1406 1404 1402 1400 1398 1396 1393 1391 1389 1387 1385 1383 1381 1379 1377 1375 1374 1372 1370 1368 1366 1365 1363 1361 1359 1356 1353 1352 1351 1347 1344 1341 1339 1336 1333 1330 1327
1402 1400 1398 1396 1394 1391 1389 1387 1385 1383 1382 1380 1378 1376 1374 1373 1371 1370 1368 1367 1365 1363 1362 1361 1359 1357 1355 1353 1349 1347 1346 1342 1339 1336 1334 1331 1328 1326
1395 1393 1391 1389 1387 1385 1383 1381 1379 1378 1376 1374 1373 1371 1370 1368 1367 1366 1365 1363 1362 1360 1359 1358 1356 1355 1353 1351 1348 1345 1343 1341 1338 1335 1332 1329 1326 1323
1389 1387 1385 1383 1381 1379 1377 1375 1373 1372 1370 1369 1368 1366 1365 1364 1363 1362 1361 1360 1359 1358 1356 1355 1354 1352 1350 1348 1346 1343 1341 1339 1337 1335 1332 1329 1327 1323
1383 1380 1378 1377 1375 1373 1371 1369 1367 1366 1365 1363 1362 1361 1361 1360 1359 1358 1357 1356 1356 1355 1353 1352 1351 1350 1348 1346 1344 1342 1339 1337 1335 1332 1331 1328 1326 1323